[[{"header":{"parameterUnit":"m.s-1","parameterCategory":2,"la1":30.2992,"la2":30.254,"lo1":-89.0895,"lo2":-89.0443,"dy":0.0025,"dx":0.0025,"nx":19,"ny":19,"refTime":"2026-04-17T09:00:00:Z","depth":"0","parameterNumber":2,"parameterNumberName":"U-component_of_CURRENTS"},"data":[0,0,0,0.2008,0.2008,0.2028,0.2028,0.2006,0.2006,0,0,0,0,0,0,0,0,0,0,0,0.2,0.2001,0.2007,0.2008,0.2028,0.2028,0.2006,0.2006,0,0,0,0,0,0,0,0,0,0,0,0.2,0.2001,0.2001,0.2009,0.2028,0.2028,0.2006,0.2,0,0,0,0,0,0,0,0,0,0,0.1985,0.199,0.2,0.2001,0.2009,0.2028,0.2028,0.2,0.2,0.1987,0,0.2001,0,0.2008,0.2004,0.2004,0,0,0,0.1996,0.199,0.1998,0.2001,0.2009,0.2029,0.2016,0.2001,0.2001,0.1987,0.2001,0.2001,0.2007,0.2004,0.2004,0.2037,0.2037,0,0,0.1995,0.1997,0.1998,0.1998,0.2028,0.2015,0.2017,0.2001,0.2004,0.2001,0.2,0.2007,0.2004,0.2004,0.2036,0.2037,0,0,0,0.2,0.1996,0.2005,0.1999,0.2009,0.2016,0.2018,0.2005,0.2009,0.2,0.2007,0.2004,0.2004,0.2035,0.2036,0.2206,0,0,0,0.1999,0.2,0.2005,0.2005,0.201,0.2014,0.2022,0.201,0.2009,0.2007,0.2004,0.2003,0.2035,0.2036,0.2201,0.2331,0,0,0,0.1997,0.2,0.2007,0.2006,0.202,0.2015,0.2018,0.201,0.2013,0.2004,0.2003,0.2034,0.2036,0.2195,0.232,0.2594,0,0,0,0.199,0.2019,0.2007,0.2034,0.202,0.2028,0.2018,0.2017,0.2011,0.2004,0.2035,0.2036,0.2194,0.2313,0.2584,0.2541,0.2585,0,0,0.2024,0.2023,0.2037,0.2027,0.2038,0.2023,0.2062,0.205,0.2027,0.2033,0.2034,0.2203,0.2319,0.2592,0.2612,0.2655,0,0,0,0.2045,0.2049,0.2051,0.2054,0.2053,0.211,0.2065,0.2108,0.2167,0.2034,0.218,0.2248,0.2417,0.2366,0.24,0.2409,0.2042,0.2042,0.2042,0.2085,0.2074,0.2095,0.2087,0.2104,0.2149,0.2247,0.2295,0.2203,0.2279,0.2368,0.2667,0.2606,0.2633,0.264,0.2314,0.2315,0.2316,0.2316,0.2129,0.2153,0.2141,0.2167,0.222,0.2267,0.2424,0.246,0.2693,0.252,0.2675,0.252,0.2681,0.2674,0.2326,0.2325,0.2323,0.2322,0.2322,0.2157,0.2179,0.2187,0.2251,0.2355,0.2425,0.2676,0.2806,0.2897,0.305,0.306,0.3055,0.3081,0.3143,0.3145,0.3147,0.3148,0.315,0.3151,0.2222,0.2226,0.2287,0.237,0.2432,0.2624,0.289,0.3072,0.3296,0.3301,0.33,0.317,0.2923,0.2927,0.3178,0.3173,0.317,0.3167,0.3165,0.2281,0.2315,0.2382,0.2445,0.2602,0.2724,0.3004,0.3321,0.3583,0.3696,0.3597,0.3458,0.3443,0.3409,0.3424,0.3792,0.3792,0.3792,0.3792,0.2339,0.236,0.2431,0.25,0.2643,0.2757,0.2953,0.3278,0.3654,0.3801,0.3864,0.3595,0.3569,0.3545,0.3508,0.3517,0.3902,0.3902,0.3902,0.2384,0.2396,0.2425,0.2476,0.2595,0.2706,0.2789,0.303,0.3605,0.391,0.3912,0.3908,0.3502,0.346,0.339,0.3338,0.3339,0,0]},{"header":{"parameterUnit":"m.s-1","parameterCategory":2,"la1":30.2992,"la2":30.254,"lo1":-89.0895,"lo2":-89.0443,"dy":0.0025,"dx":0.0025,"nx":19,"ny":19,"refTime":"2026-04-17T09:00:00:Z","depth":"0","parameterNumber":3,"parameterNumberName":"V-component_of_CURRENTS"},"data":[0,0,0,-0.0405,-0.0408,-0.0531,-0.0531,-0.0632,-0.0633,0,0,0,0,0,0,0,0,0,0,0,-0.0358,-0.0359,-0.0405,-0.0408,-0.0531,-0.0532,-0.0632,-0.0633,0,0,0,0,0,0,0,0,0,0,0,-0.0358,-0.0359,-0.036,-0.0408,-0.0531,-0.0532,-0.0632,-0.0554,0,0,0,0,0,0,0,0,0,0,-0.0442,-0.0399,-0.0359,-0.036,-0.0409,-0.0531,-0.0532,-0.0551,-0.0559,-0.0559,0,-0.0577,0,-0.0607,-0.0638,-0.0638,0,0,0,-0.0412,-0.0392,-0.0432,-0.036,-0.041,-0.053,-0.0476,-0.0556,-0.0565,-0.0569,-0.0579,-0.0583,-0.0609,-0.0639,-0.0639,-0.0578,-0.0577,0,0,-0.0405,-0.0375,-0.0426,-0.0438,-0.044,-0.0473,-0.048,-0.0562,-0.0564,-0.0579,-0.0586,-0.061,-0.0639,-0.064,-0.0579,-0.0578,0,0,0,-0.0383,-0.037,-0.0409,-0.0433,-0.046,-0.0476,-0.0485,-0.0561,-0.0576,-0.0587,-0.0611,-0.064,-0.064,-0.0581,-0.0579,-0.0336,0,0,0,-0.0379,-0.0357,-0.0406,-0.0389,-0.0459,-0.0518,-0.0482,-0.057,-0.0581,-0.0611,-0.064,-0.0641,-0.0582,-0.058,-0.0346,-0.0157,0,0,0,-0.0353,-0.0355,-0.037,-0.0387,-0.044,-0.0518,-0.0538,-0.0574,-0.0595,-0.0638,-0.0641,-0.0583,-0.058,-0.0354,-0.0175,0.0077,0,0,0,-0.0317,-0.0325,-0.0369,-0.0382,-0.0439,-0.0476,-0.0538,-0.0577,-0.0609,-0.064,-0.0582,-0.0579,-0.0357,-0.0186,0.0064,0.0174,0.0244,0,0,-0.0304,-0.0323,-0.033,-0.0372,-0.0376,-0.046,-0.0407,-0.0481,-0.0556,-0.0556,-0.0555,-0.0343,-0.0176,0.0074,0.0344,0.0409,0,0,0,-0.031,-0.03,-0.0316,-0.0329,-0.0379,-0.0303,-0.0416,-0.0394,-0.0358,-0.0562,-0.0351,-0.0252,-0.0101,-0.0065,-0.0013,-0.0293,-0.0565,-0.0566,-0.0566,-0.0204,-0.0238,-0.0201,-0.022,-0.0218,-0.0209,-0.0116,-0.0096,-0.0258,-0.0175,-0.0064,0.0288,0.0324,0.0366,0.0073,-0.0121,-0.012,-0.0119,-0.0119,-0.0098,-0.0028,-0.0048,-0.0012,0.0049,0.0115,0.0221,0.0202,0.0397,0.0178,0.031,0.0176,0.0438,0.0104,-0.0103,-0.0106,-0.0108,-0.0109,-0.011,0.0043,0.0091,0.0091,0.0205,0.0369,0.0412,0.0737,0.0742,0.0694,0.0831,0.0864,0.0859,0.0584,0.0878,0.088,0.0882,0.0884,0.0885,0.0886,0.0238,0.024,0.0371,0.0472,0.0607,0.0857,0.1077,0.1237,0.1325,0.122,0.1219,0.0682,0.0594,0.0575,0.0916,0.0911,0.0907,0.0904,0.0902,0.0494,0.0485,0.0665,0.0793,0.1099,0.141,0.1561,0.1844,0.1958,0.2026,0.132,0.1426,0.1393,0.1346,0.1344,0.1866,0.1866,0.1866,0.1866,0.0704,0.0699,0.0962,0.1186,0.1502,0.1687,0.2124,0.2266,0.2003,0.1762,0.1555,0.1246,0.1219,0.1151,0.1109,0.1091,0.1537,0.1536,0.1534,0.0929,0.0941,0.1185,0.1327,0.1661,0.1975,0.2329,0.2462,0.1943,0.1482,0.1159,0.1173,0.0658,0.0639,0.0462,0.0425,0.0369,0,0]}],[{"header":{"parameterUnit":"m.s-1","parameterCategory":2,"la1":30.2992,"la2":30.254,"lo1":-89.0895,"lo2":-89.0443,"dy":0.0025,"dx":0.0025,"nx":19,"ny":19,"refTime":"2026-04-17T09:00:00:Z","depth":"2","parameterNumber":2,"parameterNumberName":"U-component_of_CURRENTS"},"data":[0,0,0,0.1559,0.1561,0.1664,0.1664,0.1677,0.1676,0,0,0,0,0,0,0,0,0,0,0,0.1521,0.1521,0.1559,0.1561,0.1663,0.1664,0.1677,0.1676,0,0,0,0,0,0,0,0,0,0,0,0.152,0.1521,0.1522,0.1562,0.1663,0.1664,0.1677,0.1628,0,0,0,0,0,0,0,0,0,0,0.1543,0.1527,0.1521,0.1522,0.1562,0.1663,0.1664,0.1627,0.1631,0.1597,0,0.1619,0,0.1647,0.1675,0.1675,0,0,0,0.1559,0.1524,0.1551,0.1522,0.1563,0.1663,0.1617,0.163,0.1635,0.1602,0.1619,0.1621,0.1647,0.1675,0.1675,0.1786,0.1787,0,0,0.1553,0.1536,0.1549,0.1554,0.1594,0.1614,0.162,0.1634,0.1638,0.1619,0.1622,0.1648,0.1674,0.1674,0.1784,0.1786,0,0,0,0.1539,0.1532,0.1562,0.1552,0.1581,0.1617,0.1624,0.1637,0.1648,0.1622,0.1648,0.1674,0.1674,0.1783,0.1785,0.1939,0,0,0,0.1535,0.1524,0.1559,0.1549,0.1581,0.1627,0.1626,0.1647,0.165,0.1648,0.1674,0.1674,0.1781,0.1784,0.1931,0.2023,0,0,0,0.1515,0.1522,0.1536,0.1548,0.1594,0.1628,0.164,0.1649,0.1664,0.1675,0.1674,0.178,0.1784,0.1925,0.2011,0.2192,0,0,0,0.1491,0.1521,0.1535,0.1573,0.1593,0.1667,0.1641,0.1671,0.1681,0.1674,0.1782,0.1785,0.1923,0.2003,0.2183,0.1972,0.1997,0,0,0.1515,0.1523,0.1545,0.1561,0.1648,0.1652,0.1761,0.1747,0.1728,0.1763,0.1767,0.1934,0.201,0.219,0.2165,0.2184,0,0,0,0.1543,0.159,0.1604,0.1668,0.1695,0.1794,0.1797,0.1833,0.1915,0.1753,0.1959,0.2003,0.2112,0.1965,0.1982,0.1801,0.18,0.18,0.18,0.1617,0.1644,0.1717,0.1779,0.1824,0.1898,0.1996,0.2063,0.1987,0.2073,0.2146,0.2413,0.2256,0.2267,0.2152,0.2152,0.2153,0.2153,0.2154,0.1736,0.1796,0.1844,0.193,0.1998,0.2094,0.2221,0.2242,0.2457,0.2327,0.2425,0.2154,0.2293,0.2167,0.2164,0.2162,0.2161,0.216,0.2159,0.1846,0.1866,0.1926,0.2045,0.2177,0.2241,0.2424,0.2555,0.2615,0.2743,0.2596,0.2588,0.2532,0.2794,0.2796,0.2797,0.2798,0.2799,0.28,0.1903,0.1958,0.2026,0.2167,0.2236,0.2374,0.2599,0.2707,0.2803,0.2783,0.278,0.2631,0.261,0.2572,0.2819,0.2815,0.2813,0.2811,0.281,0.195,0.1972,0.2062,0.2129,0.2286,0.233,0.2578,0.2693,0.2889,0.2877,0.2814,0.2807,0.2754,0.2734,0.2699,0.2966,0.2966,0.2966,0.2966,0.1927,0.1966,0.1989,0.2057,0.2172,0.2274,0.2239,0.2306,0.2527,0.258,0.2597,0.2341,0.2343,0.2252,0.2243,0.2192,0.2328,0.2327,0.2326,0.1859,0.1883,0.1844,0.1939,0.206,0.2089,0.1926,0.1861,0.2081,0.2299,0.2471,0.2926,0.2581,0.2573,0.2448,0.2429,0.2352,0,0]},{"header":{"parameterUnit":"m.s-1","parameterCategory":2,"la1":30.2992,"la2":30.254,"lo1":-89.0895,"lo2":-89.0443,"dy":0.0025,"dx":0.0025,"nx":19,"ny":19,"refTime":"2026-04-17T09:00:00:Z","depth":"2","parameterNumber":3,"parameterNumberName":"V-component_of_CURRENTS"},"data":[0,0,0,-0.0718,-0.072,-0.0824,-0.0825,-0.0917,-0.0918,0,0,0,0,0,0,0,0,0,0,0,-0.0687,-0.0687,-0.0718,-0.072,-0.0824,-0.0825,-0.0917,-0.0918,0,0,0,0,0,0,0,0,0,0,0,-0.0686,-0.0687,-0.0688,-0.0721,-0.0824,-0.0825,-0.0917,-0.085,0,0,0,0,0,0,0,0,0,0,-0.0754,-0.0726,-0.0687,-0.0688,-0.0721,-0.0824,-0.0825,-0.0847,-0.0854,-0.0857,0,-0.0877,0,-0.0895,-0.0923,-0.0923,0,0,0,-0.0725,-0.072,-0.075,-0.0688,-0.0722,-0.0824,-0.0779,-0.0851,-0.0859,-0.0866,-0.0879,-0.0883,-0.0897,-0.0923,-0.0924,-0.086,-0.0858,0,0,-0.072,-0.0703,-0.0745,-0.0755,-0.0754,-0.0775,-0.0782,-0.0857,-0.0864,-0.0879,-0.0885,-0.0898,-0.0924,-0.0924,-0.0861,-0.0859,0,0,0,-0.07,-0.0698,-0.0728,-0.0751,-0.0771,-0.0778,-0.0786,-0.0861,-0.0872,-0.0886,-0.0899,-0.0924,-0.0925,-0.0862,-0.086,-0.0685,0,0,0,-0.0697,-0.0687,-0.0725,-0.0716,-0.077,-0.0821,-0.0788,-0.0867,-0.0876,-0.0899,-0.0924,-0.0926,-0.0863,-0.0861,-0.0693,-0.058,0,0,0,-0.0681,-0.0685,-0.0699,-0.0715,-0.0757,-0.0821,-0.0837,-0.087,-0.0883,-0.0923,-0.0926,-0.0864,-0.0862,-0.07,-0.0593,-0.0499,0,0,0,-0.0657,-0.0671,-0.0699,-0.0714,-0.0756,-0.0772,-0.0837,-0.0874,-0.0905,-0.0925,-0.0863,-0.086,-0.0702,-0.0601,-0.0507,-0.0684,-0.0661,0,0,-0.0656,-0.067,-0.0676,-0.0703,-0.0687,-0.0758,-0.0698,-0.0782,-0.0851,-0.0841,-0.084,-0.069,-0.0594,-0.05,-0.0514,-0.0496,0,0,0,-0.0662,-0.0644,-0.0657,-0.0649,-0.0685,-0.0635,-0.0706,-0.0707,-0.0696,-0.0855,-0.0679,-0.0623,-0.057,-0.0694,-0.0679,-0.0846,-0.0847,-0.0847,-0.0847,-0.0591,-0.0594,-0.0553,-0.0537,-0.0533,-0.0541,-0.0496,-0.0492,-0.0596,-0.0547,-0.0474,-0.0267,-0.0398,-0.0389,-0.0487,-0.0487,-0.0486,-0.0485,-0.0485,-0.0483,-0.0425,-0.0405,-0.0355,-0.0322,-0.0258,-0.0235,-0.027,-0.0162,-0.0287,-0.0247,-0.0495,-0.0362,-0.0471,-0.0473,-0.0475,-0.0477,-0.0478,-0.0479,-0.0357,-0.0328,-0.0292,-0.0191,-0.008,-0.0069,0.0035,0.0065,0.0016,0.009,-0.0104,-0.0111,-0.0158,0.0086,0.0087,0.0088,0.0089,0.0089,0.009,-0.0243,-0.0206,-0.0151,-0.0034,0.0044,0.0121,0.0219,0.0202,0.0154,0.0107,0.0103,-0.0075,-0.0094,-0.0125,0.0105,0.0102,0.01,0.0099,0.0098,-0.0158,-0.0157,-0.0058,0.0008,0.0137,0.0247,0.0303,0.0227,0.0239,0.0148,0.009,0.0085,0.0013,-0.0006,-0.0036,0.0204,0.0204,0.0204,0.0204,-0.0146,-0.0126,-0.0043,0.0044,0.0139,0.0264,0.0329,0.0325,0.0237,0.0228,0.0229,0.0056,0.0048,-0.0032,-0.005,-0.0085,0.0144,0.0145,0.0145,-0.0182,-0.013,-0.0094,0.0003,0.0136,0.0226,0.0406,0.0549,0.034,0.0158,0.0369,0.0171,-0.0098,-0.0103,-0.025,-0.0268,-0.0335,0,0]}],[{"header":{"parameterUnit":"m.s-1","parameterCategory":2,"la1":30.2992,"la2":30.254,"lo1":-89.0895,"lo2":-89.0443,"dy":0.0025,"dx":0.0025,"nx":19,"ny":19,"refTime":"2026-04-17T09:00:00:Z","depth":"4","parameterNumber":2,"parameterNumberName":"U-component_of_CURRENTS"},"data":[0,0,0,0.0712,0.0716,0.0894,0.0895,0.1081,0.1082,0,0,0,0,0,0,0,0,0,0,0,0.0656,0.0657,0.0712,0.0716,0.0894,0.0895,0.108,0.1082,0,0,0,0,0,0,0,0,0,0,0,0.0655,0.0656,0.0658,0.0716,0.0894,0.0895,0.108,0.0959,0,0,0,0,0,0,0,0,0,0,0.0792,0.0737,0.0656,0.0658,0.0717,0.0894,0.0895,0.0954,0.0966,0.0984,0,0.1013,0,0.1045,0.1092,0.1093,0,0,0,0.0728,0.0727,0.0776,0.0658,0.0719,0.0893,0.0817,0.0961,0.0976,0.1,0.1016,0.1024,0.1048,0.1093,0.1094,0.1269,0.127,0,0,0.0718,0.0687,0.0767,0.0785,0.0767,0.0811,0.0822,0.0971,0.0984,0.1017,0.1028,0.1051,0.1094,0.1096,0.1268,0.1269,0,0,0,0.0682,0.068,0.0728,0.0777,0.081,0.0816,0.0829,0.0978,0.0994,0.103,0.1053,0.1095,0.1097,0.1268,0.1269,0.1363,0,0,0,0.0676,0.0659,0.0723,0.0707,0.0807,0.09,0.0832,0.0985,0.1002,0.1052,0.1095,0.1099,0.1267,0.1268,0.1358,0.1332,0,0,0,0.0647,0.0655,0.0677,0.0705,0.0777,0.0899,0.0925,0.099,0.1015,0.1093,0.1099,0.1266,0.1268,0.1354,0.1328,0.1353,0,0,0,0.0608,0.0624,0.0676,0.0711,0.0775,0.0881,0.0925,0.1024,0.1093,0.1096,0.1267,0.1269,0.1353,0.1325,0.135,0.1164,0,0,0,0.0597,0.0622,0.0643,0.0693,0.0778,0.0857,0.0973,0.1086,0.1125,0.1215,0.122,0.136,0.1327,0.1352,0.1273,0,0,0,0,0.0619,0.0642,0.0674,0.0745,0.0831,0.0953,0.1064,0.1125,0.127,0.1173,0.137,0.1345,0.1359,0.1244,0.1278,0.1277,0.1277,0.1277,0.1277,0.0565,0.063,0.0681,0.0787,0.0872,0.1036,0.1132,0.1242,0.1302,0.1389,0.1433,0.152,0.1408,0.1479,0.148,0.1481,0.1481,0.1481,0.1481,0.0551,0.0583,0.0695,0.0796,0.0943,0.1089,0.1246,0.1335,0.1482,0.1507,0.1519,0.1365,0.1491,0.1489,0.1488,0.1487,0.1486,0.1485,0.1485,0.0501,0.0528,0.0631,0.0778,0.0978,0.1167,0.1288,0.144,0.1529,0.1579,0.1473,0.1557,0.1534,0.1633,0.1633,0.1633,0.1633,0.1633,0.1633,0.0417,0.0498,0.0596,0.0782,0.091,0.1121,0.1357,0.142,0.1539,0.1503,0.1619,0.1569,0.1564,0.1541,0.1634,0.1634,0.1634,0.1634,0.1634,0.0356,0.0414,0.0508,0.0621,0.0872,0.0988,0.1228,0.1358,0.1402,0.1398,0.1452,0.1461,0.1388,0.1387,0.1354,0.1395,0.1393,0.1391,0,0.0305,0.0337,0.0448,0.0538,0.0662,0.0886,0.0949,0.1096,0.1219,0.1172,0.1344,0.1396,0.1404,0.1313,0.1309,0.1263,0,0,0,0.0271,0.0313,0.0347,0.0447,0.0568,0.0762,0.0975,0.0995,0.1211,0.1247,0.1338,0.1352,0.151,0.1636,0.1545,0.1539,0.1494,0,0]},{"header":{"parameterUnit":"m.s-1","parameterCategory":2,"la1":30.2992,"la2":30.254,"lo1":-89.0895,"lo2":-89.0443,"dy":0.0025,"dx":0.0025,"nx":19,"ny":19,"refTime":"2026-04-17T09:00:00:Z","depth":"4","parameterNumber":3,"parameterNumberName":"V-component_of_CURRENTS"},"data":[0,0,0,0.0411,0.0412,0.0464,0.0464,0.0455,0.0455,0,0,0,0,0,0,0,0,0,0,0,0.0399,0.0399,0.041,0.0412,0.0464,0.0464,0.0455,0.0455,0,0,0,0,0,0,0,0,0,0,0,0.0399,0.0399,0.04,0.0412,0.0463,0.0464,0.0455,0.0435,0,0,0,0,0,0,0,0,0,0,0.0394,0.0393,0.0399,0.04,0.0412,0.0463,0.0464,0.0435,0.0436,0.0409,0,0.0425,0,0.0434,0.0452,0.0452,0,0,0,0.0413,0.0392,0.0405,0.04,0.0413,0.0463,0.0441,0.0436,0.0438,0.0411,0.0425,0.0425,0.0434,0.0452,0.0452,0.0368,0.0367,0,0,0.041,0.0406,0.0405,0.0406,0.0434,0.0439,0.0442,0.0438,0.0441,0.0425,0.0425,0.0434,0.0452,0.0451,0.0369,0.0368,0,0,0,0.0401,0.0404,0.0418,0.0406,0.0419,0.044,0.0444,0.0442,0.0447,0.0425,0.0434,0.0451,0.0451,0.0369,0.0368,0.032,0,0,0,0.04,0.0398,0.0417,0.0414,0.042,0.0441,0.0448,0.0448,0.0447,0.0434,0.0451,0.0451,0.037,0.0369,0.0323,0.0308,0,0,0,0.0395,0.0397,0.0406,0.0414,0.0435,0.0441,0.0447,0.0448,0.0452,0.0452,0.045,0.0371,0.0369,0.0325,0.0312,0.0278,0,0,0,0.0384,0.042,0.0406,0.0449,0.0435,0.0471,0.0447,0.0476,0.0483,0.0451,0.037,0.0368,0.0326,0.0315,0.028,0.0383,0,0,0,0.0425,0.0424,0.0451,0.044,0.0473,0.0463,0.0458,0.0458,0.0438,0.0368,0.0367,0.0322,0.0313,0.0278,0.0292,0,0,0,0,0.0462,0.047,0.0484,0.0496,0.0513,0.0472,0.0477,0.0433,0.0358,0.0433,0.0304,0.03,0.028,0.0346,0.0361,0.0361,0.0361,0.0362,0.0362,0.0474,0.0486,0.0505,0.0506,0.0511,0.0475,0.0424,0.0348,0.0352,0.0289,0.0247,0.017,0.0237,0.0229,0.0229,0.0228,0.0228,0.0228,0.0228,0.0483,0.0476,0.0476,0.0497,0.0455,0.0432,0.0326,0.0289,0.0165,0.0176,0.0158,0.0274,0.0223,0.0224,0.0224,0.0225,0.0225,0.0226,0.0226,0.044,0.0438,0.0459,0.0457,0.0417,0.0377,0.0309,0.0213,0.0124,0.0078,0.0157,0.0134,0.0154,0.0073,0.0072,0.0072,0.0072,0.0072,0.0072,0.0379,0.0402,0.041,0.0408,0.0414,0.0378,0.0285,0.0235,0.0138,0.0111,0.0069,0.0118,0.0123,0.0145,0.0068,0.0069,0.0069,0.0069,0.007,0.0318,0.035,0.0365,0.0386,0.0409,0.0395,0.034,0.0263,0.0194,0.0138,0.0126,0.0124,0.0153,0.0157,0.0182,0.0113,0.0114,0.0115,0,0.0279,0.0291,0.0346,0.0393,0.0417,0.0412,0.0395,0.0337,0.021,0.0208,0.0157,0.0144,0.0143,0.018,0.0186,0.0216,0,0,0,0.0241,0.0279,0.0309,0.0385,0.0434,0.0417,0.0387,0.0357,0.0247,0.0223,0.0141,0.0134,0.0164,0.0057,0.0097,0.0104,0.014,0,0]}]]